RH
23 24 27 25 29 36 44 46 41 34 28 22 18 14 13 11 11 14 23 34 36 34 29 26 23 23 26 28 37 51 64 77 73 57 54 44 30 17 11 9 11 16 15 16 20
30 26 22 26 24 27 36 38 47 52 44 35 26 17 13 12 10 12 22 28 39 38 30 29 28 26 27 33 40 55 63 71 71 68 59 53 40 24 20 13 17 22 23 18 19
36 33 26 30 24 24 29 34 40 48 56 55 44 38 19 13 13 10 16 24 33 39 38 37 30 29 28 27 31 40 42 59 67 64 58 59 52 35 35 27 22 25 32 25 19
48 45 35 37 34 28 25 30 33 38 50 68 59 48 44 22 15 13 12 16 27 41 37 40 38 34 31 29 26 23 23 25 34 46 58 70 59 50 41 44 33 28 32 42 30
70 67 55 42 40 35 27 24 30 34 44 74 74 48 46 45 36 16 15 14 15 33 47 41 44 40 43 40 34 30 26 25 24 25 34 66 74 64 57 43 40 38 34 37 43
63 56 67 53 43 35 35 23 24 26 35 56 75 74 52 56 38 38 25 17 16 17 19 27 38 52 43 38 37 36 30 28 27 26 26 28 62 78 69 64 49 45 43 42 45
89 69 53 64 66 37 26 29 27 29 26 35 44 80 72 86 50 43 48 46 32 20 21 21 35 48 61 53 42 41 35 30 28 28 26 27 29 44 68 62 58 59 46 51 45
100 83 41 46 55 61 26 26 26 29 33 27 31 46 67 81 61 57 62 47 49 62 52 26 22 27 50 57 59 52 54 40 31 32 31 28 30 28 30 47 54 50 56 53 45
100 91 53 39 47 52 34 28 28 26 29 40 30 32 51 65 83 67 79 51 52 54 58 59 28 21 27 43 51 60 58 60 48 40 38 34 31 31 30 26 25 32 42 45 49
100 87 43 46 49 40 39 39 30 28 30 42 47 39 34 46 82 60 62 69 72 55 70 58 51 36 20 23 34 55 69 65 67 56 43 45 39 32 31 31 28 25 22 22 30
62 100 37 39 43 49 58 57 37 27 29 36 43 43 41 43 51 75 77 62 54 55 58 62 61 60 41 22 22 27 46 63 74 84 69 52 48 47 36 34 31 30 27 24 20
41 100 44 44 37 34 36 42 32 27 27 28 36 44 42 42 47 58 74 52 69 61 50 60 63 74 70 55 29 23 29 43 58 74 91 73 63 61 44 34 32 30 30 28 24
54 73 53 69 50 37 32 28 30 28 28 28 32 57 70 50 45 58 94 58 56 69 55 48 94 74 89 77 58 36 24 32 61 71 70 75 72 81 66 49 38 31 28 28 24
69 91 91 99 76 51 41 34 33 29 30 28 31 49 71 83 46 53 56 84 63 75 78 62 66 69 98 84 73 50 34 22 26 37 64 65 68 68 69 60 48 38 35 33 27
59 75 78 99 90 69 50 39 34 31 28 28 34 47 67 64 48 50 47 63 83 93 84 67 77 87 73 94 83 69 40 34 22 27 35 39 50 58 71 54 47 40 32 28 25
47 45 41 55 91 70 54 44 42 37 32 30 33 40 38 55 87 42 50 55 85 76 60 81 60 59 88 100 80 68 54 37 32 24 35 32 33 55 63 51 50 40 32 28 25
44 41 35 38 80 68 61 58 47 42 37 34 32 30 32 37 75 90 53 61 69 79 68 64 79 97 96 95 84 74 61 41 46 36 36 40 36 42 60 60 68 62 43 29 18
44 39 35 40 88 81 62 50 43 41 42 38 34 47 33 36 53 75 71 72 83 85 100 92 97 100 82 81 75 92 74 54 33 45 45 40 41 58 76 82 77 57 42 40 36
46 40 39 59 87 91 57 37 28 26 30 33 41 40 42 44 38 42 84 64 85 100 100 100 99 81 72 80 70 90 85 67 42 40 47 47 42 46 42 57 55 58 55 46 34
44 43 45 61 98 87 44 30 22 22 31 31 52 54 48 50 46 68 68 68 85 99 100 97 99 80 72 74 85 86 81 69 49 35 47 50 41 55 49 64 60 54 52 44 38
59 61 60 87 83 67 50 34 30 24 33 32 36 50 51 58 47 53 62 70 98 66 67 65 83 92 90 76 82 97 84 62 45 41 48 46 41 51 60 68 66 54 56 50 42
66 57 75 100 87 81 55 40 30 30 38 40 46 45 54 63 50 58 72 81 72 77 86 100 75 76 100 84 79 100 88 66 43 49 40 49 65 39 61 66 72 59 62 62 47
73 75 86 100 89 66 41 40 28 35 45 44 53 60 58 71 64 68 69 91 95 100 97 97 93 87 100 99 86 100 91 62 30 36 34 64 39 42 49 64 73 69 69 60 57
87 80 82 72 67 59 28 31 26 35 60 54 73 88 98 86 78 84 94 88 100 100 99 66 100 74 99 96 90 89 86 62 34 42 34 58 43 30 54 75 69 77 69 56 68
92 99 86 62 52 29 34 44 39 52 52 58 77 100 100 100 100 98 100 100 100 100 92 99 89 85 100 99 91 77 66 60 34 29 33 54 58 28 50 48 64 73 66 61 72
100 100 100 45 29 48 52 60 59 49 72 73 81 100 100 100 100 100 100 100 100 100 90 88 84 86 100 100 83 73 58 53 34 27 31 33 55 55 49 75 82 82 67 69 72
100 99 87 48 28 60 61 59 72 71 82 72 80 100 81 98 100 100 100 100 93 97 80 94 75 81 96 68 77 73 43 37 26 25 29 30 48 44 56 79 87 88 77 83 75
Wind_Speed
53 56 55 59 58 66 69 73 70 66 69 68 55 43 32 23 17 18 23 25 24 24 26 29 30 32 37 41 44 42 41 40 40 38 38 39 37 39 38 42 61 73 73 73 72
55 54 57 58 59 63 61 70 72 75 76 75 69 55 44 32 25 17 18 20 24 23 20 23 26 27 29 34 39 41 41 39 37 35 34 34 34 33 34 37 51 69 72 72 72
52 56 56 61 61 62 59 65 67 73 77 80 78 78 59 44 33 27 18 19 20 22 20 19 21 23 25 27 32 37 40 40 38 37 35 35 34 30 29 34 44 63 74 72 71
47 51 54 57 60 64 57 62 60 67 73 74 80 77 81 63 47 34 25 19 19 22 22 20 20 21 22 25 29 31 33 37 39 39 38 38 36 33 29 29 38 55 72 75 74
44 48 51 54 58 59 59 61 59 65 68 73 74 79 84 78 69 47 36 29 24 21 24 24 23 22 22 23 27 29 31 31 31 33 36 40 39 37 35 31 32 46 62 74 77
42 45 45 51 55 58 60 62 58 60 64 69 72 73 78 81 78 74 53 43 34 28 26 27 28 27 25 24 22 25 29 31 33 34 34 36 43 41 40 37 35 37 49 65 73
44 47 47 48 52 56 58 59 59 60 58 63 71 72 68 80 81 83 86 75 59 45 35 30 28 29 29 29 27 24 24 26 29 32 34 34 38 45 46 44 42 40 42 48 62
43 45 48 49 50 50 55 58 60 58 60 56 65 67 70 72 76 83 84 83 81 84 76 47 33 31 31 30 29 26 25 26 25 27 31 34 35 40 43 49 48 47 47 48 51
43 49 51 49 48 47 51 54 59 59 57 60 63 62 66 71 76 81 79 80 86 87 91 76 46 35 31 30 29 28 27 26 27 27 27 30 32 38 41 43 46 50 55 56 57
42 50 52 50 47 48 52 54 59 58 56 57 60 62 61 69 72 77 79 78 82 86 93 88 75 50 41 34 33 32 31 31 33 33 31 31 32 33 37 41 44 48 51 55 61
41 46 50 50 49 51 52 54 57 57 61 58 60 61 62 65 67 71 78 78 81 82 83 88 91 86 58 43 37 37 38 37 34 36 39 35 36 34 36 37 41 46 50 54 57
43 45 48 49 52 53 55 57 58 62 60 58 57 61 63 65 63 67 73 74 77 80 82 85 88 91 88 76 48 38 40 41 41 39 40 40 41 42 39 39 41 43 46 52 57
47 39 43 50 51 52 52 59 59 63 63 64 59 57 62 65 65 67 65 73 76 76 81 82 87 94 98 90 77 49 38 38 45 48 45 45 44 44 45 43 43 44 46 50 55
46 46 45 49 51 52 54 54 56 60 62 63 62 59 60 64 68 66 66 69 76 79 77 85 86 91 96 90 89 65 50 42 38 42 49 48 46 46 47 47 46 44 45 49 56
47 45 46 50 50 53 56 56 56 60 63 63 65 60 61 63 66 66 66 66 72 80 80 87 86 90 94 101 92 75 54 48 44 40 43 46 45 44 46 48 46 45 43 46 51
50 47 48 50 53 52 56 56 57 57 60 62 65 61 62 61 63 68 64 67 67 77 81 86 87 94 98 100 92 82 65 51 48 43 42 45 45 46 46 47 45 46 43 42 45
49 49 50 51 52 55 57 60 60 62 63 65 65 64 63 62 63 64 68 66 70 76 80 85 90 96 100 102 92 82 70 57 49 47 43 42 45 44 44 44 45 48 46 45 42
50 50 51 51 50 57 60 63 65 65 65 69 68 66 67 66 64 67 67 66 69 76 80 85 92 100 102 104 94 80 76 63 52 46 43 44 43 42 42 43 43 43 39 41 45
54 53 52 50 52 59 64 66 69 69 69 73 64 66 68 71 70 67 66 72 72 78 83 89 100 104 102 104 98 85 77 66 57 50 44 43 46 41 37 39 37 38 37 40 41
57 59 56 57 57 63 65 65 70 74 71 69 65 67 70 70 75 67 66 73 72 81 89 96 102 108 109 104 96 89 83 69 60 52 47 42 45 42 38 40 38 34 34 35 36
60 62 60 57 62 66 66 65 73 75 72 69 67 65 68 71 73 70 74 71 75 84 90 97 102 110 109 106 102 89 86 75 62 55 49 40 48 41 37 41 38 31 32 33 35
64 65 62 60 68 70 71 70 73 75 72 72 66 67 66 69 69 71 70 71 78 84 93 104 108 109 107 108 101 89 85 78 63 56 52 43 46 37 32 36 33 29 30 33 34
65 67 64 67 74 76 79 77 75 74 78 73 72 68 70 72 73 70 72 77 80 85 99 107 110 113 106 103 104 94 86 77 62 55 52 42 44 37 30 31 29 29 28 30 32
69 70 73 76 78 79 76 77 80 80 76 74 72 72 72 77 77 74 75 82 84 93 106 107 111 112 110 106 106 93 88 77 63 57 49 52 38 42 29 28 28 26 26 26 30
76 71 73 78 81 75 74 75 78 77 75 75 79 74 78 79 77 83 75 93 93 110 113 110 112 111 110 108 103 92 87 78 65 59 49 48 41 36 35 27 25 24 24 24 28
81 79 76 77 75 75 81 76 76 82 74 76 79 76 83 77 83 80 88 99 103 117 116 111 109 110 110 109 101 89 82 73 68 62 54 45 41 35 33 29 27 25 23 23 24
86 86 82 85 80 79 80 77 76 76 75 84 82 79 94 90 85 98 104 105 116 116 116 114 113 112 111 103 95 86 77 72 67 60 56 47 37 36 32 29 29 26 23 22 20
Wind_Direction
29 25 27 26 26 28 34 35 35 30 27 21 17 12 1 343 321 306 290 279 278 281 274 268 262 260 259 257 258 254 254 253 254 253 258 265 272 273 260 237 228 228 230 226 225
26 26 25 22 22 24 29 29 37 37 35 34 27 22 16 4 346 323 300 292 288 281 288 277 264 262 263 262 258 255 254 254 254 254 255 264 271 273 263 241 228 224 229 228 222
24 23 23 22 22 20 24 25 34 34 35 37 32 31 23 19 8 351 326 304 300 291 290 292 278 265 264 263 264 262 259 257 257 257 256 259 263 267 266 248 233 224 226 229 225
21 18 17 18 19 20 20 21 30 34 33 36 34 34 33 27 20 9 354 332 312 301 296 294 291 286 276 274 270 269 265 261 258 257 257 258 259 260 260 255 240 230 224 228 230
18 16 12 13 15 18 18 17 26 29 34 33 33 35 32 35 29 23 15 1 344 317 307 302 294 291 287 289 283 276 272 266 263 259 256 255 255 254 257 253 245 236 231 229 231
13 14 12 10 11 14 17 16 16 19 26 33 33 31 30 34 34 32 30 20 6 350 331 312 303 296 292 289 290 287 279 273 268 264 259 256 250 249 249 251 249 244 237 233 235
12 10 11 9 7 12 14 15 13 16 19 25 27 30 30 27 28 33 36 37 27 14 354 331 313 305 300 299 295 296 291 280 277 271 264 257 257 249 247 245 244 246 245 241 238
5 9 9 6 6 9 13 14 14 12 17 19 22 26 27 24 22 24 25 26 29 31 26 8 336 312 304 300 300 294 295 300 282 276 273 266 259 257 251 248 245 244 243 244 244
350 7 6 5 3 5 8 8 8 11 16 16 20 22 24 25 22 20 22 22 22 23 21 20 13 348 320 306 300 292 289 285 292 286 285 277 266 262 259 255 250 247 245 243 244
345 4 3 360 0 2 1 3 6 4 10 10 11 14 18 21 21 20 18 18 17 18 21 22 22 9 353 330 309 297 292 291 288 285 281 281 279 271 264 262 259 255 251 247 245
351 349 359 359 355 355 355 358 2 2 4 8 9 10 11 13 16 15 14 14 15 14 18 20 22 19 8 353 330 309 297 289 283 284 284 280 278 276 272 270 265 261 259 256 253
349 343 347 356 355 356 354 354 359 360 359 4 3 6 9 10 12 14 12 12 12 12 15 15 16 13 15 11 352 329 308 295 286 281 279 280 281 280 274 270 267 265 265 263 260
340 340 343 346 350 354 353 356 355 355 356 356 358 1 358 4 5 3 3 7 9 8 8 10 7 9 7 6 4 347 329 304 287 285 279 278 277 279 279 277 274 270 269 269 266
333 333 337 342 344 347 348 347 351 352 352 353 353 358 354 352 1 359 359 360 4 5 4 5 7 6 9 4 1 355 341 328 305 285 277 277 276 275 276 278 280 278 276 274 271
328 336 337 338 339 342 343 344 348 348 351 349 348 353 353 355 358 356 1 360 357 1 360 0 358 2 2 359 359 355 347 334 324 303 287 277 273 273 274 276 281 282 279 272 270
325 327 330 332 332 337 339 339 341 345 348 347 346 348 350 349 349 353 352 355 353 356 357 355 357 358 354 355 357 355 349 341 333 321 297 287 280 275 275 279 286 288 288 282 280
319 322 325 328 330 333 337 339 340 342 343 344 343 345 346 348 342 343 351 351 355 356 356 355 352 352 352 352 353 352 348 342 335 329 310 292 285 284 280 283 289 292 294 288 286
317 320 323 325 326 332 337 338 339 341 339 338 340 341 342 345 342 340 343 347 350 354 355 353 350 347 349 351 352 348 348 341 337 329 316 299 286 282 284 286 287 288 294 302 300
317 319 323 322 322 329 330 335 338 339 338 335 334 338 339 341 345 344 335 338 341 347 349 350 348 349 347 347 350 346 345 341 335 332 321 304 292 285 280 283 289 297 297 302 304
315 319 321 319 318 322 328 334 335 336 337 333 330 331 338 339 341 337 336 339 338 343 345 345 346 343 345 347 347 345 344 339 334 331 323 309 293 284 282 283 288 292 297 307 312
312 316 318 317 315 321 327 330 330 334 337 337 333 330 334 336 341 342 338 339 340 342 341 342 341 339 341 345 345 342 340 338 334 329 324 314 294 285 284 282 286 292 298 313 318
311 313 314 312 316 320 324 327 326 329 331 334 329 332 332 333 339 339 330 335 334 336 337 336 340 339 340 343 344 339 336 335 333 327 323 318 293 290 275 278 284 293 303 311 317
309 313 311 309 315 318 321 320 322 326 326 330 335 328 330 333 336 333 335 331 328 328 332 334 333 338 339 340 342 338 332 333 333 324 322 311 297 293 277 276 280 289 297 308 319
305 307 309 311 313 313 320 319 322 323 326 326 328 330 328 330 331 331 331 331 329 330 329 331 331 335 336 337 339 335 330 328 329 320 324 305 305 291 272 271 274 283 291 309 316
300 305 308 311 311 313 318 317 319 322 322 326 329 324 326 326 327 330 325 328 326 328 328 328 329 331 333 334 335 332 328 325 323 320 320 306 299 293 278 269 271 283 296 309 312
300 303 307 311 310 313 318 315 315 321 322 324 325 321 324 322 326 322 324 326 322 327 327 328 329 330 332 332 331 328 325 321 318 318 316 305 291 280 270 268 275 283 291 299 306
299 301 302 308 305 311 317 318 314 319 322 326 323 319 325 324 320 320 320 322 325 325 325 325 326 327 329 328 328 323 322 318 315 316 310 303 291 277 264 255 262 273 282 287 296